Flag for Saint Kitts and Nevis Weather past 2 weeks in Basseterre, Saint Kitts and Nevis

Now
82 °F

Passing clouds.


Feels Like: 89 °F
Forecast: N/A
Wind: 13 mph from Northeast

Location: Golden Rock

Current Time: Oct 22, 2014 at 7:33:42 PM

Latest Report: Oct 22, 2014 at 7:00 PM


Visibility: N/A

Pressure: 29.92 "Hg

Humidity: 79%

Dew point: 75 °F

Location of BasseterreLocation

Historic Weather in Basseterre — Graph

°F

Basseterre temperature yesterday

Maximum temperature yesterday: 86 °F (at 9:00 AM)
Minimum temperature yesterday: 79 °F (at 6:00 AM)
Average temperature yesterday: 83 °F

Past Weeks' High & Low Weather Summary

 TemperatureHumidityPressure
High90 °F (Oct 9, 1:00 PM)100% (Oct 11, 6:00 AM)30.04 "Hg (Oct 11, 6:00 AM)
Low73 °F (Oct 9, 6:00 AM)62% (Oct 9, 3:00 PM)29.65 "Hg (Oct 13, 2:00 PM)
Average83 °F80%29.91 "Hg
* Reported Oct 7 6:00 PM — Oct 22 6:00 PM, Basseterre, Weather by CustomWeather, © 2014

Note: Actual official high and low records may vary slightly from our data, if they occured in-between our weather recording intervals... More about our weather records

Advertising

Basseterre weather history for previous 24 hours

 ConditionsComfort  
Time TempWeatherWind HumidityBarometerVisibility
6:00 PM
Oct 22
82 °FPassing clouds.12 mph79%29.89 "HgN/A
5:00 PM84 °FScattered clouds.12 mph74%29.89 "HgN/A
4:00 PM84 °FPassing clouds.12 mph74%29.89 "HgN/A
3:00 PM86 °FPassing clouds.10 mph75%29.89 "HgN/A
2:00 PM86 °FPassing clouds.12 mph75%29.89 "HgN/A
1:00 PM88 °FPassing clouds.6 mph75%29.92 "HgN/A
12:00 PM88 °FPassing clouds.13 mph66%29.95 "HgN/A
10:00 AM86 °FPassing clouds.12 mph70%30.01 "HgN/A
9:00 AM86 °FPassing clouds.15 mph70%30.01 "HgN/A
8:00 AM84 °FScattered showers. Scattered clouds.14 mph74%29.98 "HgN/A
7:00 AM82 °FSprinkles. Scattered clouds.9 mph79%29.98 "HgN/A
6:00 AM81 °FScattered showers. Passing clouds.13 mph84%29.95 "HgN/A
10:00 PM
Oct 21
81 °FPassing clouds.10 mph79%29.98 "HgN/A
9:00 PM81 °FPassing clouds.8 mph79%29.95 "HgN/A
8:00 PM81 °FPassing clouds.10 mph79%29.95 "HgN/A
7:00 PM81 °FPassing clouds.6 mph79%29.92 "HgN/A
Weather by CustomWeather, © 2014

See weather overviewHow to use our weather pages